EW3585 Weather Reports


time (UTC)temp
F
wind
direction
speed
knots
gust
knots
rain 1hr
in
rain 24hr
in
rain mn
in
humidity
%
barometer
mb
20260906072027 73 320 0.0 0.9 0.00 0.00 0.00 97 1014.8
20260906071727 73 320 0.0 0.9 0.00 0.00 0.00 97 1014.7
20260906071031 73 320 0.0 0.9 0.00 0.00 0.00 97 1014.8
20260906070531 73 320 0.0 0.9 0.00 0.00 0.00 97 1014.7
20260906070316 73 320 0.0 1.7 0.00 0.00 0.00 97 1014.8
20260906065525 73 320 0.0 1.7 0.00 0.00 0.00 97 1014.8
20260906065029 73 321 0.0 1.7 0.00 0.00 0.00 97 1014.7
20260906064728 73 321 0.0 1.7 0.00 0.00 0.00 96 1014.6
20260906064031 73 325 0.9 1.7 0.00 0.00 0.00 96 1014.7
20260906063542 74 325 0.0 1.7 0.00 0.00 0.00 96 1014.9
20260906063218 74 325 0.0 0.0 0.00 0.00 0.00 95 1015.1
20260906062534 74 325 0.0 1.7 0.00 0.00 0.00 95 1015.0
20260906062028 74 325 0.0 1.7 0.00 0.00 0.00 95 1015.3
20260906061632 74 325 0.0 0.0 0.00 0.00 0.00 95 1015.5
20260906061039 74 325 0.0 0.0 0.00 0.00 0.00 96 1015.5
20260906060524 74 325 0.0 1.7 0.00 0.00 0.00 96 1015.7
20260906060215 74 325 0.0 1.7 0.00 0.00 0.00 95 1015.7
20260906055528 74 325 0.0 1.7 0.00 0.00 0.00 95 1015.6
20260906055024 74 325 0.0 1.7 0.00 0.00 0.00 95 1015.5
20260906054719 74 325 0.0 2.6 0.00 0.00 0.00 95 1015.7
20260906054035 74 323 0.9 2.6 0.00 0.00 0.00 95 1016.0
20260906053532 74 360 0.9 2.6 0.00 0.00 0.00 95 1015.8
20260906053227 74 9 0.9 2.6 0.00 0.00 0.00 95 1016.0
20260906052538 74 314 0.0 1.7 0.00 0.00 0.00 95 1015.9
20260906052032 74 315 0.0 1.7 0.00 0.00 0.00 95 1015.9
20260906051721 74 315 0.0 0.9 0.00 0.00 0.00 94 1015.9
20260906051036 74 315 0.0 1.7 0.00 0.00 0.00 93 1015.9
20260906050541 75 315 0.0 1.7 0.00 0.00 0.00 93 1016.0
20260906050244 75 315 0.0 1.7 0.00 0.00 0.00 94 1016.0
20260906045546 75 315 0.0 0.0 0.00 0.00 0.00 94 1016.0
20260906045034 75 315 0.0 0.0 0.00 0.00 0.00 94 1016.1
20260906044718 75 315 0.0 0.0 0.00 0.00 0.00 93 1016.2
20260906044036 75 315 0.0 1.7 0.00 0.00 0.00 93 1016.1
20260906043529 75 315 0.9 1.7 0.00 0.00 0.00 93 1016.1
20260906043202 75 314 0.0 1.7 0.00 0.00 0.00 93 1016.0
20260906042539 75 314 0.9 1.7 0.00 0.00 0.00 93 1016.0
20260906042032 74 315 0.0 1.7 0.00 0.00 0.00 92 1015.9
20260906041717 75 315 0.0 1.7 0.00 0.00 0.00 92 1015.9
20260906041039 74 315 0.0 1.7 0.00 0.00 0.00 92 1016.0
20260906040528 74 315 0.0 0.0 0.00 0.00 0.00 92 1016.2
20260906040142 74 315 0.0 1.7 0.00 0.00 0.00 92 1016.3
20260906035524 75 315 0.0 1.7 0.00 0.00 0.00 92 1016.2
20260906035039 75 313 0.0 1.7 0.00 0.00 0.00 92 1016.2
20260906034645 75 313 0.0 1.7 0.00 0.00 0.00 92 1016.2
20260906034023 75 313 0.0 1.7 0.00 0.00 0.00 92 1016.2
20260906033532 75 313 0.0 0.0 0.00 0.00 0.00 93 1016.1
20260906033217 75 313 0.0 1.7 0.00 0.00 0.00 92 1016.1
20260906032526 76 313 0.0 1.7 0.00 0.00 0.00 92 1016.1
20260906032034 76 313 0.0 1.7 0.00 0.00 0.00 92 1015.9
20260906031704 76 313 0.9 1.7 0.00 0.00 0.00 92 1016.3
20260906031023 76 313 0.0 3.5 0.00 0.00 0.00 92 1016.3
20260906030538 76 312 0.9 3.5 0.00 0.00 0.00 93 1016.4
20260906030222 76 311 1.7 2.6 0.00 0.00 0.00 93 1016.0
20260906025526 76 313 0.9 3.5 0.00 0.00 0.00 93 1016.0
20260906025029 76 300 1.7 3.5 0.00 0.00 0.00 92 1015.9
20260906024703 76 185 0.0 1.7 0.00 0.00 0.00 91 1016.0
20260906024029 76 185 0.0 1.7 0.00 0.00 0.00 91 1016.0
20260906023533 76 185 0.0 0.9 0.00 0.00 0.00 90 1016.0
20260906023158 76 185 0.0 0.9 0.00 0.00 0.00 90 1015.8
20260906022533 76 185 0.0 0.9 0.00 0.00 0.00 90 1015.7
20260906022028 77 185 0.0 0.9 0.00 0.00 0.00 89 1015.8
20260906021632 77 185 0.0 1.7 0.00 0.00 0.00 89 1016.0
20260906021020 77 185 0.0 1.7 0.00 0.00 0.00 89 1016.0
20260906020855 77 185 0.0 1.7 0.00 0.00 0.00 89 1015.8
20260906020210 77 185 0.0 0.9 0.00 0.00 0.00 89 1015.9
20260906015535 77 185 0.0 0.0 0.00 0.00 0.00 88 1016.0
20260906015026 77 185 0.0 0.9 0.00 0.00 0.00 88 1016.0
20260906014715 77 185 0.0 0.9 0.00 0.00 0.00 88 1016.1
20260906014022 77 185 0.0 0.9 0.00 0.00 0.00 89 1016.0
20260906013541 77 185 0.0 1.7 0.00 0.00 0.00 89 1016.0
20260906013216 77 185 0.0 1.7 0.00 0.00 0.00 89 1015.9
20260906012523 77 185 0.9 1.7 0.00 0.00 0.00 89 1016.0
20260906012031 77 115 0.0 0.9 0.00 0.00 0.00 87 1015.9
20260906011717 77 113 0.0 0.9 0.00 0.00 0.00 88 1015.5
20260906011022 78 111 0.0 0.9 0.00 0.00 0.00 86 1015.4
20260906010517 78 111 0.0 0.9 0.00 0.00 0.00 85 1015.4
20260906010148 78 112 0.0 0.0 0.00 0.00 0.00 84 1015.5
20260906005525 78 111 0.0 0.0 0.00 0.00 0.00 84 1015.2
20260906005042 78 111 0.0 1.7 0.00 0.00 0.00 84 1015.5
20260906004651 78 111 0.0 1.7 0.00 0.00 0.00 84 1015.2
20260906004029 78 111 0.0 1.7 0.00 0.00 0.00 84 1015.3
20260906003524 78 111 0.0 1.7 0.00 0.00 0.00 84 1015.1
20260906003204 78 111 0.0 1.7 0.00 0.00 0.00 84 1015.3
20260906002542 78 112 0.9 1.7 0.00 0.00 0.00 84 1015.3
20260906002026 79 111 0.9 1.7 0.00 0.00 0.00 83 1015.4
20260906001717 79 112 0.0 1.7 0.00 0.00 0.00 82 1015.0
20260906001044 80 111 0.0 1.7 0.00 0.00 0.00 81 1014.9
20260906000542 80 112 0.0 1.7 0.00 0.00 0.00 80 1014.8
20260906000219 81 112 0.0 1.7 0.00 0.00 0.00 80 1014.7
20260905235538 81 112 0.0 1.7 0.00 0.00 0.00 79 1014.9
20260905235043 81 112 0.0 1.7 0.00 0.00 0.00 79 1014.8
20260905234717 81 112 0.0 1.7 0.00 0.00 0.00 78 1014.5
20260905234024 82 111 0.0 1.7 0.00 0.00 0.00 77 1014.4
20260905233535 82 121 0.0 1.7 0.00 0.00 0.00 77 1014.5
20260905233159 82 123 0.0 1.7 0.00 0.00 0.00 76 1014.8
20260905232527 82 336 0.0 1.7 0.00 0.00 0.00 75 1014.9
20260905232027 83 336 0.0 1.7 0.00 0.00 0.00 75 1014.8
20260905231721 83 336 0.0 1.7 0.00 0.00 0.00 75 1014.8
20260905231033 83 334 0.0 1.7 0.00 0.00 0.00 75 1014.8
20260905230540 83 334 0.0 1.7 0.00 0.00 0.00 75 1014.7
20260905230132 83 26 0.0 1.7 0.00 0.00 0.00 75 1014.6
20260905225530 83 135 0.0 0.9 0.00 0.00 0.00 76 1014.7
20260905225033 83 5 0.0 0.9 0.00 0.00 0.00 75 1014.7
20260905224719 83 70 0.0 1.7 0.00 0.00 0.00 74 1014.9
20260905224047 83 79 0.0 1.7 0.00 0.00 0.00 75 1014.9
20260905223526 83 79 0.0 1.7 0.00 0.00 0.00 75 1014.8
20260905223218 83 79 0.0 1.7 0.00 0.00 0.00 75 1014.8
20260905222547 82 314 0.0 1.7 0.00 0.00 0.00 75 1015.0
20260905222037 82 314 0.0 1.7 0.00 0.00 0.00 76 1014.7
20260905221716 82 314 0.0 1.7 0.00 0.00 0.00 77 1014.7
20260905221033 82 314 0.9 1.7 0.00 0.00 0.00 76 1014.8
20260905220542 82 313 0.0 1.7 0.00 0.00 0.00 77 1014.6
20260905220230 82 311 0.0 3.5 0.00 0.00 0.00 76 1014.6
20260905215547 82 313 0.0 3.5 0.00 0.00 0.00 76 1014.7
20260905215029 82 310 0.9 3.5 0.00 0.00 0.00 75 1015.0
20260905214718 82 342 0.9 3.5 0.00 0.00 0.00 75 1014.8
20260905214043 82 348 0.9 3.5 0.00 0.00 0.00 73 1014.7
20260905213539 82 80 0.9 3.5 0.00 0.00 0.00 75 1015.1
20260905213229 82 84 0.0 3.5 0.00 0.00 0.00 73 1015.2
20260905212531 82 84 0.9 3.5 0.00 0.00 0.00 73 1015.2
20260905212046 82 27 0.0 2.6 0.00 0.00 0.00 75 1015.4
20260905211718 81 82 0.9 2.6 0.00 0.00 0.00 76 1015.5
20260905211024 81 82 0.0 6.1 0.00 0.00 0.00 78 1015.6
20260905210532 80 84 1.7 6.1 0.00 0.00 0.00 78 1015.3
20260905210235 80 109 2.6 5.2 0.00 0.00 0.00 79 1015.1
20260905205539 81 91 1.7 4.3 0.00 0.00 0.00 79 1015.2
20260905205046 81 78 0.0 2.6 0.00 0.00 0.00 79 1015.1
20260905204715 81 78 0.9 2.6 0.00 0.00 0.00 76 1015.1
20260905204042 81 63 0.9 2.6 0.00 0.00 0.00 75 1015.4
20260905203526 81 5 0.0 4.3 0.00 0.00 0.00 75 1015.5
20260905203218 81 5 0.0 4.3 0.00 0.00 0.00 76 1015.4
20260905202528 81 304 1.7 4.3 0.00 0.00 0.00 74 1015.8
20260905202018 81 302 0.9 4.3 0.00 0.00 0.00 73 1015.7
20260905201715 81 13 1.7 7.0 0.00 0.00 0.00 72 1015.7
20260905201043 81 92 2.6 7.0 0.00 0.00 0.00 71 1015.1
20260905200525 82 92 3.5 8.7 0.00 0.00 0.00 70 1015.4
20260905200222 82 88 4.3 8.7 0.00 0.00 0.00 68 1015.8
20260905195520 83 42 3.5 9.6 0.00 0.00 0.00 68 1015.8
20260905195027 83 94 4.3 13.9 0.00 0.00 0.00 69 1016.1
20260905194658 84 123 5.2 13.9 0.00 0.00 0.00 69 1015.7
20260905194026 84 115 6.1 15.6 0.00 0.00 0.00 70 1015.6
20260905193539 84 73 5.2 15.6 0.00 0.00 0.00 70 1015.7
20260905193142 85 80 7.8 15.6 0.00 0.00 0.00 69 1015.6
20260905192528 86 69 6.1 14.8 0.00 0.00 0.00 68 1015.7
20260905192033 86 64 7.8 20.9 0.00 0.00 0.00 66 1015.7
20260905191648 88 92 9.6 20.9 0.00 0.00 0.00 63 1015.8
20260905191034 91 93 10.4 20.9 0.00 0.00 0.00 54 1015.4
20260905190532 96 80 6.1 15.6 0.00 0.00 0.00 50 1015.6
20260905190225 97 92 1.7 3.5 0.00 0.00 0.00 51 1015.2
20260905185518 98 117 0.9 3.5 0.00 0.00 0.00 50 1014.8
20260905185020 98 281 0.0 3.5 0.00 0.00 0.00 49 1014.7
20260905184625 99 99 1.7 3.5 0.00 0.00 0.00 49 1014.7
20260905184046 99 71 1.7 3.5 0.00 0.00 0.00 49 1014.9
20260905183529 99 114 0.9 3.5 0.00 0.00 0.00 49 1014.8
20260905183206 98 71 1.7 3.5 0.00 0.00 0.00 50 1014.9
20260905182532 98 157 1.7 4.3 0.00 0.00 0.00 49 1014.7
20260905182033 98 180 1.7 5.2 0.00 0.00 0.00 49 1015.0
20260905181720 98 117 2.6 5.2 0.00 0.00 0.00 48 1015.1
20260905181026 98 175 2.6 7.0 0.00 0.00 0.00 50 1015.3
20260905180524 98 204 2.6 7.0 0.00 0.00 0.00 48 1015.3
20260905180205 98 209 2.6 7.0 0.00 0.00 0.00 48 1015.5
20260905175548 98 217 2.6 5.2 0.00 0.00 0.00 54 1015.5
20260905175040 98 206 1.7 5.2 0.00 0.00 0.00 54 1015.6
20260905174624 98 211 0.9 4.3 0.00 0.00 0.00 54 1015.6
20260905174027 97 194 0.9 7.0 0.00 0.00 0.00 54 1015.6
20260905173542 97 207 2.6 7.0 0.00 0.00 0.00 54 1015.9
20260905173219 96 66 2.6 5.2 0.00 0.00 0.00 54 1015.6
20260905172604 96 103 1.7 6.1 0.00 0.00 0.00 56 1015.8
20260905172033 95 105 1.7 6.1 0.00 0.00 0.00 57 1015.8
20260905171716 95 94 2.6 5.2 0.00 0.00 0.00 55 1015.8
20260905171018 95 60 1.7 4.3 0.00 0.00 0.00 55 1015.8
20260905170545 95 138 2.6 4.3 0.00 0.00 0.00 56 1016.0
20260905170217 95 188 1.7 5.2 0.00 0.00 0.00 56 1016.1
20260905165533 95 188 1.7 5.2 0.00 0.00 0.00 57 1016.3
20260905165028 94 188 2.6 5.2 0.00 0.00 0.00 58 1016.4
20260905164651 94 178 1.7 5.2 0.00 0.00 0.00 59 1016.5
20260905164020 94 213 1.7 4.3 0.00 0.00 0.00 59 1016.7
20260905163543 94 134 0.9 4.3 0.00 0.00 0.00 59 1016.9
20260905163206 94 279 0.0 4.3 0.00 0.00 0.00 61 1016.9
20260905162528 94 350 1.7 5.2 0.00 0.00 0.00 64 1017.0
20260905162038 93 325 1.7 5.2 0.00 0.00 0.00 64 1017.1
20260905161717 93 304 1.7 4.3 0.00 0.00 0.00 65 1017.1
20260905161035 93 335 2.6 5.2 0.00 0.00 0.00 65 1017.1
20260905160523 92 347 2.6 5.2 0.00 0.00 0.00 65 1017.1
20260905160219 91 304 0.9 6.1 0.00 0.00 0.00 67 1017.2
20260905155519 91 313 1.7 6.1 0.00 0.00 0.00 67 1017.2
20260905155027 91 337 1.7 5.2 0.00 0.00 0.00 67 1017.2
20260905154713 91 310 2.6 5.2 0.00 0.00 0.00 68 1017.2
20260905154029 91 219 1.7 4.3 0.00 0.00 0.00 68 1017.4
20260905153524 90 277 0.9 4.3 0.00 0.00 0.00 69 1017.3
20260905153201 90 298 1.7 4.3 0.00 0.00 0.00 69 1017.5
20260905152532 90 304 0.9 4.3 0.00 0.00 0.00 70 1017.4
20260905152027 89 315 0.9 4.3 0.00 0.00 0.00 72 1017.4
20260905151719 89 329 1.7 3.5 0.00 0.00 0.00 72 1017.4
20260905151033 89 355 1.7 4.3 0.00 0.00 0.00 74 1017.4
20260905150532 88 341 1.7 4.3 0.00 0.00 0.00 75 1017.4
20260905150222 88 296 2.6 6.1 0.00 0.00 0.00 74 1017.6
20260905145544 87 298 2.6 6.1 0.00 0.00 0.00 75 1017.3
20260905145031 86 292 2.6 6.1 0.00 0.00 0.00 76 1017.4
20260905144719 86 292 1.7 4.3 0.00 0.00 0.00 77 1017.4
20260905144039 85 276 1.7 4.3 0.00 0.00 0.00 79 1017.5
20260905143542 85 275 1.7 3.5 0.00 0.00 0.00 80 1017.6
20260905143215 85 304 0.9 4.3 0.00 0.00 0.00 80 1017.6
20260905142535 85 296 1.7 3.5 0.00 0.00 0.00 81 1017.5
20260905142032 84 277 0.9 3.5 0.00 0.00 0.00 80 1017.6
20260905141719 84 297 0.9 3.5 0.00 0.00 0.00 81 1017.7
20260905141020 84 295 0.9 3.5 0.00 0.00 0.00 81 1017.9
20260905140542 83 293 1.7 3.5 0.00 0.00 0.00 82 1017.7
20260905140225 83 332 0.9 3.5 0.00 0.00 0.00 84 1017.8
20260905135546 82 342 1.7 3.5 0.00 0.00 0.00 86 1018.0
20260905135039 82 321 0.9 3.5 0.00 0.00 0.00 87 1017.9
20260905134718 82 345 0.9 3.5 0.00 0.00 0.00 88 1018.0
20260905134024 81 288 0.9 3.5 0.00 0.00 0.00 88 1018.0
20260905133540 81 304 1.7 4.3 0.00 0.00 0.00 88 1017.9
20260905133217 80 311 1.7 4.3 0.00 0.00 0.00 88 1017.8
20260905132525 80 298 1.7 3.5 0.00 0.00 0.00 89 1018.0
20260905132039 80 300 0.9 3.5 0.00 0.00 0.00 89 1017.9
20260905131718 80 263 0.9 2.6 0.00 0.00 0.00 91 1017.7
20260905131039 79 286 0.9 2.6 0.00 0.00 0.00 91 1017.7
20260905130539 79 290 0.9 4.3 0.00 0.00 0.00 92 1017.7
20260905130225 78 292 1.7 4.3 0.00 0.00 0.00 92 1017.8
20260905125521 78 290 0.9 3.5 0.00 0.00 0.00 93 1017.8
20260905125025 78 265 0.9 3.5 0.00 0.00 0.00 94 1017.7
20260905124720 77 292 0.9 3.5 0.00 0.00 0.00 94 1017.7
20260905124039 77 291 1.7 3.5 0.00 0.00 0.00 94 1017.7
20260905123530 77 286 1.7 3.5 0.00 0.00 0.00 94 1017.8
20260905123217 77 254 0.9 2.6 0.00 0.00 0.00 96 1017.7
20260905122525 76 271 0.0 1.7 0.00 0.00 0.00 96 1017.7
20260905122040 76 272 0.0 1.7 0.00 0.00 0.00 96 1017.7
20260905121709 76 272 0.0 1.7 0.00 0.00 0.00 97 1017.6
20260905121040 76 272 0.0 1.7 0.00 0.00 0.00 98 1017.6
20260905120541 75 272 0.0 1.7 0.00 0.00 0.00 98 1017.6
20260905120223 75 272 0.0 1.7 0.00 0.00 0.00 99 1017.5
20260905115533 75 273 0.0 1.7 0.00 0.00 0.00 99 1017.6
20260905115041 75 284 0.0 0.0 0.00 0.00 0.00 99 1017.4
20260905114656 75 284 0.0 0.0 0.00 0.00 0.00 99 1017.5
20260905114042 75 284 0.0 0.0 0.00 0.00 0.00 99 1017.4
20260905113518 74 284 0.0 0.0 0.00 0.00 0.00 99 1017.2
20260905113152 74 284 0.0 0.0 0.00 0.00 0.00 99 1017.2
20260905112523 74 284 0.0 0.0 0.00 0.00 0.00 99 1017.1
20260905112032 74 284 0.0 0.0 0.00 0.00 0.00 99 1017.0
20260905111703 74 284 0.0 0.0 0.00 0.00 0.00 98 1017.0
20260905111023 74 284 0.0 0.0 0.00 0.00 0.00 98 1016.9
20260905110548 74 284 0.0 0.0 0.00 0.00 0.00 98 1016.9
20260905110215 74 284 0.0 0.0 0.00 0.00 0.00 98 1017.1
20260905105539 74 284 0.0 0.0 0.00 0.00 0.00 98 1017.0
20260905105017 75 284 0.0 0.0 0.00 0.00 0.00 98 1016.9
20260905104653 75 284 0.0 0.0 0.00 0.00 0.00 98 1016.7
20260905104038 75 284 0.0 0.9 0.00 0.00 0.00 98 1016.7
20260905103546 75 284 0.0 1.7 0.00 0.00 0.00 98 1016.6
20260905103152 75 284 0.0 2.6 0.00 0.00 0.00 98 1016.7
20260905102542 75 284 0.0 2.6 0.00 0.00 0.00 98 1016.7
20260905102041 75 284 1.7 2.6 0.00 0.00 0.00 98 1016.7
20260905101642 75 248 0.9 2.6 0.00 0.00 0.00 98 1016.5
20260905101037 75 247 0.9 2.6 0.00 0.00 0.00 98 1016.7
20260905100524 75 243 0.0 1.7 0.00 0.00 0.00 98 1016.6
20260905100157 75 242 0.0 1.7 0.00 0.00 0.00 98 1016.8
20260905095539 75 242 0.0 0.0 0.00 0.00 0.00 97 1016.6
20260905095023 75 242 0.0 1.7 0.00 0.00 0.00 97 1016.5
20260905094651 75 242 0.0 1.7 0.00 0.00 0.00 97 1016.5
20260905094035 75 242 0.0 1.7 0.00 0.00 0.00 98 1016.7
20260905093540 75 242 0.0 0.9 0.00 0.00 0.00 97 1016.5
20260905093148 75 242 0.0 0.9 0.00 0.00 0.00 97 1016.6
20260905092541 75 242 0.0 0.9 0.00 0.00 0.00 97 1016.5
20260905092039 75 242 0.0 0.9 0.00 0.00 0.00 96 1016.6
20260905091651 75 242 0.0 0.0 0.00 0.00 0.00 96 1016.6
20260905091038 75 242 0.0 0.0 0.00 0.00 0.00 96 1016.5
20260905090527 75 242 0.0 1.7 0.00 0.00 0.00 96 1016.6
20260905090213 75 242 0.0 1.7 0.00 0.00 0.00 96 1016.6
20260905085518 75 242 0.0 1.7 0.00 0.00 0.00 96 1016.7
20260905085038 75 246 0.9 1.7 0.00 0.00 0.00 97 1016.7
20260905084658 75 245 0.0 0.9 0.00 0.00 0.00 96 1016.7
20260905084039 75 246 0.0 0.0 0.00 0.00 0.00 95 1016.7
20260905083538 76 246 0.0 0.0 0.00 0.00 0.00 95 1016.6
20260905083155 76 246 0.0 1.7 0.00 0.00 0.00 94 1016.6
20260905082530 76 246 0.0 1.7 0.00 0.00 0.00 95 1016.6
20260905082027 76 246 0.0 1.7 0.00 0.00 0.00 95 1016.8
20260905081648 76 246 0.0 1.7 0.00 0.00 0.00 95 1016.7
20260905081042 77 246 0.0 1.7 0.00 0.00 0.00 95 1016.8
20260905080520 76 246 0.0 1.7 0.00 0.00 0.00 94 1016.8
20260905080218 76 246 0.0 2.6 0.00 0.00 0.00 91 1016.8
20260905075524 76 246 0.9 2.6 0.00 0.00 0.00 92 1016.9
20260905075023 76 240 0.9 1.7 0.00 0.00 0.00 95 1017.0
20260905074613 77 140 0.0 1.7 0.00 0.00 0.00 94 1017.0
20260905074029 77 140 0.9 1.7 0.00 0.00 0.00 94 1017.1
20260905073527 77 139 0.0 1.7 0.00 0.00 0.00 94 1017.1
20260905073132 77 124 0.0 1.7 0.00 0.00 0.00 94 1017.2